| time (UTC) | temp C | wind direction | speed KPH | gust KPH | rain 1hr cm | rain 24hr cm | rain mn cm | humidity % | barometer mb |
| 20260903211537 | 21 | 0 | 0.0 | 3.2 | 0.33 | 1.27 | 0.86 | 88 | 1010.9 |
| 20260903210536 | 21 | 347 | 1.6 | 4.8 | 0.33 | 1.27 | 0.86 | 87 | 1011.2 |
| 20260903205531 | 21 | 312 | 4.8 | 12.9 | 0.33 | 1.24 | 0.84 | 87 | 1011.0 |
| 20260903204526 | 21 | 10 | 4.8 | 11.3 | 0.28 | 1.19 | 0.79 | 86 | 1010.3 |
| 20260903201530 | 22 | 323 | 8.0 | 20.9 | 0.00 | 0.94 | 0.51 | 83 | 1010.7 |
| 20260903200525 | 22 | 2 | 4.8 | 11.3 | 0.00 | 0.94 | 0.51 | 83 | 1011.0 |
| 20260903195524 | 22 | 30 | 1.6 | 6.4 | 0.00 | 0.94 | 0.51 | 83 | 1009.1 |
| 20260903194523 | 23 | 4 | 3.2 | 4.8 | 0.00 | 0.94 | 0.51 | 83 | 1009.8 |
| 20260903193518 | 23 | 47 | 0.0 | 1.6 | 0.00 | 0.94 | 0.51 | 83 | 1009.3 |
| 20260903192535 | 23 | 48 | 1.6 | 4.8 | 0.00 | 0.94 | 0.51 | 83 | 1009.3 |
| 20260903191612 | 23 | 48 | 1.6 | 3.2 | 0.00 | 0.94 | 0.51 | 82 | 1009.7 |
| 20260903190528 | 23 | 46 | 1.6 | 3.2 | 0.00 | 0.94 | 0.51 | 82 | 1009.8 |
| 20260903185526 | 23 | 47 | 3.2 | 4.8 | 0.00 | 0.94 | 0.51 | 82 | 1009.8 |
| 20260903185018 | 23 | 33 | 1.6 | 4.8 | 0.00 | 0.94 | 0.51 | 82 | 1009.9 |
| 20260903184034 | 23 | 30 | 1.6 | 3.2 | 0.00 | 0.94 | 0.51 | 82 | 1010.1 |
| 20260903183030 | 23 | 47 | 3.2 | 4.8 | 0.00 | 0.94 | 0.51 | 83 | 1010.1 |
| 20260903182029 | 23 | 46 | 3.2 | 6.4 | 0.00 | 0.94 | 0.51 | 84 | 1009.8 |
| 20260903181044 | 23 | 41 | 1.6 | 4.8 | 0.03 | 0.94 | 0.51 | 84 | 1009.5 |
| 20260903180041 | 22 | 32 | 1.6 | 9.7 | 0.05 | 0.94 | 0.51 | 85 | 1009.6 |
| 20260903175018 | 22 | 19 | 3.2 | 9.7 | 0.05 | 0.94 | 0.51 | 85 | 1009.8 |
| 20260903174035 | 22 | 17 | 1.6 | 6.4 | 0.05 | 0.94 | 0.51 | 85 | 1009.5 |
| 20260903173032 | 22 | 6 | 3.2 | 6.4 | 0.08 | 0.94 | 0.51 | 85 | 1009.5 |
| 20260903172029 | 21 | 114 | 6.4 | 14.5 | 0.10 | 0.94 | 0.51 | 84 | 1009.2 |
| 20260903171025 | 21 | 93 | 1.6 | 4.8 | 0.15 | 0.89 | 0.48 | 84 | 1010.1 |
| 20260903170022 | 21 | 120 | 3.2 | 4.8 | 0.23 | 0.89 | 0.46 | 83 | 1010.5 |
| 20260903165019 | 21 | 179 | 4.8 | 16.1 | 0.23 | 0.89 | 0.46 | 83 | 1010.3 |
| 20260903164016 | 21 | 355 | 1.6 | 3.2 | 0.23 | 0.89 | 0.46 | 83 | 1010.6 |
| 20260903163033 | 21 | 349 | 0.0 | 4.8 | 0.20 | 0.84 | 0.43 | 82 | 1010.8 |
| 20260903162030 | 21 | 324 | 6.4 | 12.9 | 0.20 | 0.84 | 0.41 | 81 | 1011.0 |
| 20260903161028 | 23 | 298 | 12.9 | 33.8 | 0.13 | 0.76 | 0.33 | 80 | 1012.2 |
| 20260903160044 | 24 | 284 | 17.7 | 53.1 | 0.03 | 0.66 | 0.23 | 82 | 1012.8 |
| 20260903155020 | 24 | 118 | 0.0 | 1.6 | 0.00 | 0.64 | 0.20 | 81 | 1011.4 |
| 20260903154037 | 24 | 117 | 0.0 | 1.6 | 0.00 | 0.64 | 0.20 | 80 | 1011.2 |
| 20260903153034 | 25 | 116 | 0.0 | 1.6 | 0.00 | 0.64 | 0.20 | 80 | 1011.0 |
| 20260903152031 | 25 | 116 | 0.0 | 1.6 | 0.00 | 0.64 | 0.20 | 79 | 1010.8 |
| 20260903151028 | 25 | 113 | 4.8 | 6.4 | 0.00 | 0.64 | 0.20 | 79 | 1010.4 |
| 20260903150024 | 26 | 114 | 4.8 | 11.3 | 0.00 | 0.64 | 0.20 | 79 | 1010.1 |
| 20260903145021 | 26 | 115 | 4.8 | 6.4 | 0.00 | 0.64 | 0.20 | 80 | 1010.2 |
| 20260903144040 | 26 | 116 | 4.8 | 6.4 | 0.00 | 0.64 | 0.20 | 80 | 1010.4 |
| 20260903143035 | 26 | 115 | 4.8 | 9.7 | 0.00 | 0.64 | 0.20 | 81 | 1010.4 |
| 20260903142032 | 26 | 115 | 4.8 | 9.7 | 0.00 | 0.64 | 0.20 | 81 | 1010.2 |
| 20260903141029 | 25 | 114 | 3.2 | 4.8 | 0.00 | 0.64 | 0.20 | 82 | 1010.0 |
| 20260903140026 | 25 | 112 | 1.6 | 6.4 | 0.00 | 0.64 | 0.20 | 82 | 1010.3 |
| 20260903135023 | 25 | 112 | 1.6 | 4.8 | 0.00 | 0.64 | 0.20 | 83 | 1010.4 |
| 20260903134019 | 25 | 113 | 3.2 | 4.8 | 0.00 | 0.64 | 0.20 | 84 | 1010.4 |
| 20260903133016 | 24 | 201 | 3.2 | 4.8 | 0.00 | 0.64 | 0.20 | 84 | 1010.4 |
| 20260903132033 | 24 | 260 | 0.0 | 3.2 | 0.00 | 0.64 | 0.20 | 85 | 1010.5 |
| 20260903131030 | 23 | 258 | 0.0 | 1.6 | 0.00 | 0.64 | 0.20 | 85 | 1010.5 |
| 20260903130048 | 23 | 258 | 0.0 | 1.6 | 0.00 | 0.64 | 0.20 | 85 | 1010.6 |
| 20260903125023 | 23 | 258 | 1.6 | 1.6 | 0.00 | 0.64 | 0.20 | 85 | 1010.8 |
| 20260903124040 | 23 | 258 | 1.6 | 3.2 | 0.00 | 0.64 | 0.20 | 85 | 1010.8 |
| 20260903123017 | 22 | 259 | 3.2 | 6.4 | 0.00 | 0.64 | 0.20 | 85 | 1010.8 |
| 20260903121031 | 22 | 257 | 3.2 | 6.4 | 0.00 | 0.64 | 0.20 | 85 | 1010.6 |
| 20260903120028 | 22 | 250 | 4.8 | 6.4 | 0.00 | 0.64 | 0.20 | 84 | 1010.6 |
| 20260903115025 | 22 | 257 | 1.6 | 3.2 | 0.00 | 0.64 | 0.20 | 84 | 1010.5 |
| 20260903114021 | 22 | 257 | 3.2 | 4.8 | 0.00 | 0.64 | 0.20 | 84 | 1010.5 |
| 20260903113038 | 22 | 255 | 1.6 | 4.8 | 0.00 | 0.64 | 0.20 | 84 | 1010.6 |
| 20260903112035 | 22 | 260 | 1.6 | 4.8 | 0.00 | 0.64 | 0.20 | 84 | 1010.5 |
| 20260903111032 | 22 | 260 | 4.8 | 6.4 | 0.00 | 0.64 | 0.20 | 84 | 1010.5 |
| 20260903110028 | 22 | 261 | 3.2 | 6.4 | 0.00 | 0.64 | 0.20 | 84 | 1010.2 |
| 20260903105027 | 22 | 262 | 1.6 | 3.2 | 0.00 | 0.64 | 0.20 | 84 | 1010.1 |
| 20260903104022 | 22 | 264 | 1.6 | 4.8 | 0.00 | 0.64 | 0.20 | 84 | 1010.1 |
| 20260903103041 | 22 | 264 | 1.6 | 4.8 | 0.00 | 0.64 | 0.20 | 84 | 1010.0 |
| 20260903102016 | 22 | 262 | 3.2 | 6.4 | 0.00 | 0.64 | 0.20 | 85 | 1010.1 |
| 20260903101033 | 22 | 262 | 4.8 | 9.7 | 0.00 | 0.64 | 0.20 | 85 | 1010.0 |
| 20260903100029 | 21 | 258 | 4.8 | 9.7 | 0.00 | 0.64 | 0.20 | 85 | 1009.9 |
| 20260903095047 | 21 | 262 | 4.8 | 9.7 | 0.00 | 0.64 | 0.20 | 85 | 1009.9 |
| 20260903094024 | 21 | 271 | 3.2 | 6.4 | 0.00 | 0.64 | 0.20 | 85 | 1010.0 |
| 20260903093020 | 21 | 358 | 3.2 | 6.4 | 0.00 | 0.64 | 0.20 | 84 | 1009.9 |
| 20260903092017 | 21 | 14 | 1.6 | 3.2 | 0.00 | 0.64 | 0.20 | 85 | 1009.7 |
| 20260903091034 | 22 | 5 | 1.6 | 4.8 | 0.00 | 0.64 | 0.20 | 84 | 1009.7 |
| 20260903090031 | 22 | 323 | 3.2 | 6.4 | 0.00 | 0.64 | 0.20 | 84 | 1009.6 |
| 20260903085027 | 22 | 326 | 3.2 | 6.4 | 0.00 | 0.64 | 0.20 | 84 | 1009.4 |
| 20260903084024 | 22 | 313 | 4.8 | 11.3 | 0.00 | 0.64 | 0.20 | 84 | 1009.5 |
| 20260903083021 | 22 | 353 | 3.2 | 6.4 | 0.00 | 0.64 | 0.20 | 84 | 1009.4 |
| 20260903082018 | 22 | 2 | 1.6 | 4.8 | 0.05 | 0.64 | 0.20 | 84 | 1009.3 |
| 20260903081034 | 22 | 310 | 4.8 | 11.3 | 0.05 | 0.64 | 0.20 | 84 | 1009.2 |
| 20260903080032 | 21 | 275 | 6.4 | 16.1 | 0.05 | 0.64 | 0.20 | 84 | 1009.5 |
| 20260903075028 | 21 | 288 | 6.4 | 12.9 | 0.05 | 0.64 | 0.20 | 84 | 1009.2 |
| 20260903074025 | 21 | 345 | 1.6 | 3.2 | 0.08 | 0.64 | 0.20 | 84 | 1009.0 |
| 20260903073022 | 21 | 38 | 3.2 | 6.4 | 0.10 | 0.64 | 0.20 | 84 | 1009.0 |
| 20260903072018 | 21 | 297 | 6.4 | 12.9 | 0.05 | 0.58 | 0.15 | 84 | 1009.4 |
| 20260903071015 | 22 | 295 | 6.4 | 16.1 | 0.05 | 0.58 | 0.15 | 84 | 1009.4 |
| 20260903070032 | 22 | 308 | 6.4 | 12.9 | 0.05 | 0.58 | 0.15 | 85 | 1009.7 |
| 20260903065029 | 22 | 297 | 8.0 | 12.9 | 0.05 | 0.58 | 0.15 | 85 | 1010.0 |
| 20260903064026 | 22 | 337 | 6.4 | 12.9 | 0.03 | 0.56 | 0.15 | 84 | 1009.6 |
| 20260903063023 | 22 | 1 | 1.6 | 4.8 | 0.00 | 0.56 | 0.13 | 84 | 1009.3 |
| 20260903062021 | 22 | 359 | 0.0 | 1.6 | 0.03 | 0.56 | 0.13 | 84 | 1009.3 |
| 20260903061016 | 22 | 359 | 1.6 | 3.2 | 0.13 | 0.56 | 0.13 | 83 | 1009.3 |
| 20260903060033 | 22 | 5 | 1.6 | 3.2 | 0.13 | 0.56 | 0.13 | 83 | 1009.5 |
| 20260903055032 | 22 | 3 | 1.6 | 4.8 | 0.13 | 0.56 | 0.13 | 83 | 1009.5 |
| 20260903054028 | 22 | 38 | 0.0 | 1.6 | 0.13 | 0.56 | 0.13 | 83 | 1009.5 |
| 20260903053024 | 22 | 38 | 1.6 | 3.2 | 0.13 | 0.56 | 0.13 | 82 | 1009.5 |
| 20260903052020 | 22 | 1 | 3.2 | 6.4 | 0.10 | 0.53 | 0.10 | 82 | 1010.4 |
| 20260903051017 | 22 | 36 | 0.0 | 3.2 | 0.00 | 0.43 | 0.00 | 82 | 1010.1 |
| 20260903050034 | 22 | 36 | 1.6 | 3.2 | 0.00 | 0.43 | 0.00 | 81 | 1010.1 |
| 20260903045031 | 22 | 36 | 3.2 | 6.4 | 0.00 | 0.43 | 0.00 | 81 | 1010.2 |
| 20260903044028 | 22 | 18 | 1.6 | 3.2 | 0.05 | 0.43 | 0.00 | 81 | 1010.1 |
| 20260903043017 | 22 | 3 | 3.2 | 4.8 | 0.15 | 0.43 | 0.00 | 81 | 1009.9 |
| 20260903042034 | 23 | 25 | 0.0 | 3.2 | 0.38 | 0.43 | 0.00 | 80 | 1009.7 |
| 20260903041031 | 23 | 18 | 1.6 | 3.2 | 0.43 | 0.43 | 0.00 | 79 | 1010.0 |
| 20260903040028 | 23 | 35 | 1.6 | 4.8 | 0.43 | 0.43 | 0.56 | 78 | 1010.1 |
| 20260903035024 | 23 | 23 | 0.0 | 3.2 | 0.43 | 0.43 | 0.53 | 78 | 1010.4 |
| 20260903034023 | 23 | 32 | 1.6 | 4.8 | 0.38 | 0.38 | 0.51 | 77 | 1010.4 |
| 20260903033034 | 24 | 21 | 1.6 | 3.2 | 0.30 | 0.30 | 0.30 | 75 | 1009.4 |
| 20260903032049 | 24 | 24 | 3.2 | 6.4 | 0.08 | 0.08 | 0.08 | 75 | 1009.6 |
| 20260903031045 | 24 | 32 | 3.2 | 9.7 | 0.00 | 0.00 | 0.00 | 75 | 1008.8 |
| 20260903030021 | 24 | 45 | 3.2 | 9.7 | 0.00 | 0.00 | 0.00 | 75 | 1008.8 |
| 20260903025017 | 25 | 39 | 4.8 | 12.9 | 0.00 | 0.00 | 0.00 | 75 | 1008.1 |
| 20260903024055 | 25 | 29 | 3.2 | 9.7 | 0.00 | 0.00 | 0.00 | 74 | 1008.2 |
| 20260903023030 | 25 | 17 | 1.6 | 6.4 | 0.00 | 0.00 | 0.00 | 74 | 1008.6 |
| 20260903022026 | 25 | 6 | 3.2 | 6.4 | 0.00 | 0.00 | 0.00 | 74 | 1009.0 |
| 20260903021024 | 25 | 11 | 3.2 | 9.7 | 0.00 | 0.00 | 0.00 | 73 | 1008.9 |
| 20260903020018 | 25 | 39 | 3.2 | 6.4 | 0.00 | 0.00 | 0.00 | 72 | 1008.8 |
| 20260903015035 | 26 | 27 | 1.6 | 6.4 | 0.00 | 0.00 | 0.00 | 72 | 1008.8 |
| 20260903014031 | 26 | 58 | 6.4 | 11.3 | 0.00 | 0.00 | 0.00 | 71 | 1008.7 |
| 20260903013047 | 26 | 32 | 3.2 | 6.4 | 0.00 | 0.00 | 0.00 | 70 | 1008.5 |
| 20260903012023 | 26 | 32 | 1.6 | 6.4 | 0.00 | 0.00 | 0.00 | 69 | 1008.6 |
| 20260903011521 | 26 | 40 | 3.2 | 14.5 | 0.00 | 0.00 | 0.00 | 68 | 1008.4 |
| 20260903010536 | 27 | 44 | 1.6 | 4.8 | 0.00 | 0.00 | 0.00 | 66 | 1008.3 |
| 20260903005552 | 27 | 54 | 4.8 | 11.3 | 0.00 | 0.00 | 0.00 | 65 | 1008.4 |
| 20260903004528 | 28 | 48 | 4.8 | 9.7 | 0.00 | 0.00 | 0.00 | 63 | 1008.3 |
| 20260903003524 | 28 | 39 | 3.2 | 4.8 | 0.00 | 0.00 | 0.00 | 62 | 1007.9 |
| 20260903002541 | 30 | 30 | 1.6 | 6.4 | 0.00 | 0.00 | 0.00 | 58 | 1007.8 |
| 20260903001536 | 31 | 46 | 3.2 | 9.7 | 0.00 | 0.00 | 0.00 | 55 | 1007.7 |
| 20260903000533 | 32 | 358 | 0.0 | 1.6 | 0.00 | 0.00 | 0.00 | 52 | 1007.7 |
| 20260902235529 | 32 | 328 | 1.6 | 4.8 | 0.00 | 0.00 | 0.00 | 51 | 1007.7 |
| 20260902234605 | 32 | 322 | 3.2 | 9.7 | 0.00 | 0.00 | 0.00 | 50 | 1007.9 |
| 20260902233521 | 33 | 292 | 9.7 | 22.5 | 0.00 | 0.00 | 0.00 | 49 | 1008.1 |
| 20260902232516 | 33 | 299 | 9.7 | 22.5 | 0.00 | 0.00 | 0.00 | 49 | 1008.0 |
| 20260902231553 | 33 | 293 | 11.3 | 27.4 | 0.00 | 0.00 | 0.00 | 50 | 1008.0 |
| 20260902230531 | 33 | 289 | 8.0 | 16.1 | 0.00 | 0.00 | 0.00 | 49 | 1007.8 |
| 20260902225525 | 33 | 287 | 11.3 | 20.9 | 0.00 | 0.00 | 0.00 | 49 | 1007.6 |
| 20260902224541 | 33 | 285 | 11.3 | 25.7 | 0.00 | 0.00 | 0.00 | 48 | 1007.3 |
| 20260902223519 | 33 | 278 | 12.9 | 27.4 | 0.00 | 0.00 | 0.00 | 48 | 1007.3 |
| 20260902222539 | 33 | 286 | 11.3 | 20.9 | 0.00 | 0.00 | 0.00 | 48 | 1007.4 |
| 20260902221530 | 33 | 264 | 12.9 | 25.7 | 0.00 | 0.00 | 0.00 | 47 | 1007.4 |
| 20260902220526 | 33 | 291 | 9.7 | 22.5 | 0.00 | 0.00 | 0.00 | 48 | 1007.2 |
| 20260902215522 | 34 | 295 | 9.7 | 24.1 | 0.00 | 0.00 | 0.00 | 47 | 1007.3 |
| 20260902214518 | 34 | 279 | 12.9 | 29.0 | 0.00 | 0.00 | 0.00 | 47 | 1007.5 |
| 20260902213535 | 34 | 293 | 12.9 | 20.9 | 0.00 | 0.00 | 0.00 | 47 | 1007.4 |
| 20260902212551 | 33 | 281 | 12.9 | 22.5 | 0.00 | 0.00 | 0.00 | 47 | 1007.4 |